sat.trackr.live / text

‹ back to catalog

STARLINK-33971

NORAD 63932 · 2025-098G

PAYLOAD ACTIVE UNKNOWN

§ Identity

Operator
Country
US
Launch date
2025-05-13
Launch site
AFWTR
Launch vehicle
Mass (kg)
RCS (m²)

Purposes: comms

External: N2YO · Heavens-Above · Gunter

§ Orbital elements

Epoch: 2026-05-25T02:17:44.386368Z

Period
96.11 min
Inclination
70.0010°
Eccentricity
0.0003345
Mean motion
14.98335428 rev/d
Perigee alt
569.7 km
Apogee alt
574.4 km
Semi-major
6,950.2 km
B*
2.2409e-4
RAAN
81.9620°
Arg perigee
268.2539°
Mean anomaly
91.8237°
Rev number
5,801

§ Raw data

STARLINK-339711 63932U 25098G   26145.09565262  .00002582  00000+0  22409-3 0  99962 63932  70.0010  81.9620 0003345 268.2539  91.8237 14.98335428 58010

JSON: /api/v1/satellites/63932 · /tle

For live sub-satellite position, see the globe view (requires WebGL).

§ Visibility from observer

Set your observer location to see the next 7 days of passes ≥ 10°. The values pass through the URL so the page stays shareable.

No JS? Fill the form by hand. The geolocation button needs JavaScript.